Regional Weather Roundup
Issued by NWS

Home | Current Version | Previous Version | Text Only | Print | Product List | Glossary On
Versions: 1 2 3 4 5 6 7 8 9 10 11 12 13 14 15 16 17 18 19 20 21 22 23 24 25 26 27 28 29 30 31 32 33 34 35 36 37 38 39 40 41 42 43 44 45 46 47 48 49 50
000
ASUS45 KBOU 221807
RWRCO

WEATHER ROUNDUP FOR COLORADO
NATIONAL WEATHER SERVICE DENVER/BOULDER CO
1200 PM MDT FRI MAY 22 2015

NOTE: "FAIR" INDICATES FEW OR NO CLOUDS BELOW 12000 FEET WITH NO
SIGNIFICANT WEATHER AND/OR OBSTRUCTIONS TO VISIBILITY.

COZ001>005-013-030-031-221900-
...NORTHWEST COLORADO...

CITY           SKY/WX    TMP DP  RH WIND       PRES   REMARKS
CRAIG          LGT RAIN  51  43  74 MISG      30.03S
HAYDEN         CLOUDY    46  37  71 NE6       30.04S
MEEKER         CLOUDY    51  40  65 NE5       30.02F
MOUNT WERNER   NOT AVBL
STEAMBOAT SPGS CLOUDY    45  39  78 N3        30.06S
WALDEN         CLOUDY    41  34  75 S13       30.02R
$$

COZ006>008-011-221900-
...WEST CENTRAL VALLEYS...

CITY           SKY/WX    TMP DP  RH WIND       PRES   REMARKS
GRAND JUNCTION CLOUDY    61  42  49 NW14      29.93F
MONTROSE       MOSUNNY   65  33  30 VRB6      29.98F
EAGLE          PTSUNNY   52  43  71 CALM      30.07F
RIFLE          PTSUNNY   57  42  57 CALM      29.99F
DELTA          MOSUNNY   66  41  39 CALM      29.96F
NUCLA          MOSUNNY   63  32  31 S9        30.01F
$$

COZ017>023-064>068-221900-
...SOUTHWEST COLORADO...

CITY           SKY/WX    TMP DP  RH WIND       PRES   REMARKS
DURANGO        MOSUNNY   56  40  55 E9G17     30.07F
CORTEZ         PTSUNNY   63  34  33 S13G18    30.01S
PAGOSA SPRINGS MOSUNNY   53  38  56 CALM      30.13F
TELLURIDE      MOSUNNY   48  28  46 SE8G18    30.13F
WOLF CREEK PAS NOT AVBL
$$

COZ009-010-012-014-032>034-037-058>063-221900-
...CENTRAL COLORADO...

CITY           SKY/WX    TMP DP  RH WIND       PRES   REMARKS
ASPEN          PTSUNNY   55  37  50 N12       30.04F
BUENA VISTA    MOSUNNY   56  28  34 S15G21    30.05F
COPPER MTN     CLOUDY    36  27  69 SW13G23   30.20S
BERTHOUD PASS  HAZE      27  18  69 NW18G32   30.20S VSB<1/4 WCI  13
COTTONWOOD PAS PTSUNNY   50  19  29 SW13G22   30.12F
GUNNISON       MOSUNNY   57  25  28 W7        30.07F
KREMMLING      CLOUDY    48  37  66 SW7       30.09S
LEADVILLE      PTSUNNY   46  24  42 W9G16     30.10F
MONARCH PASS   CLOUDY    32  27  80 MISG      30.31S
SALIDA         MOSUNNY   57  40  53 SE13G18   30.12F
SUNLIGHT       LGT SNOW  36  34  93 CALM      30.19S
WILKERSON PASS CLOUDY    34  32  93 SW8G17    30.20R WCI  27
$$

COZ069>075-221900-
...SAN LUIS VALLEY/SANGRE DE CRISTO MOUNTAINS...

CITY           SKY/WX    TMP DP  RH WIND       PRES   REMARKS
ALAMOSA        SUNNY     58  31  35 S8G20     30.09F
LA VETA PASS   SUNNY    N/A N/A N/A MISG      30.16S
SAGUACHE       MOSUNNY   54  36  50 SE6       30.09F
$$

COZ035-036-038>040-221900-
...NORTHERN COLORADO FRONT RANGE...

CITY           SKY/WX    TMP DP  RH WIND       PRES   REMARKS
DENVER INTL AP CLOUDY    50  46  86 E9        30.01R
DMNS CITY PARK   N/A     53  45  75 N7        30.01R
AURORA         PTSUNNY   51  46  83 NW8       30.02R
FRONT RANGE AP CLOUDY    54  48  82 E8G16     30.12R
ERIE MUNI ARPT RAIN      51  47  85 N7        30.01R
BOULDER MUN AP LGT RAIN  50  48  93 NE5       30.01S
CENTENNIAL     PTSUNNY   52  45  77 N9        30.02R
BROOMFIELD     CLOUDY    50  46  87 NW9       30.03R
FORT COLLINS   CLOUDY    48  46  93 E12       30.03S
LONGMONT       LGT RAIN  54  49  82 NE7       30.03S
$$

COZ041-046-047-076>085-087-088-221900-
...PIKES PEAK/PALMER DIVIDE AND SOUTHERN FOOTHILLS...

CITY           SKY/WX    TMP DP  RH WIND       PRES   REMARKS
COLO. SPRINGS  MOSUNNY   54  44  69 S8        30.03S
A. F. ACADEMY  DRIZZLE   52  43  71 VRB6      30.02S
ELLICOTT       NOT AVBL
FALCON         MOSUNNY   54  42  65 S7        30.04F
FORT CARSON    MOSUNNY   55  47  74 VRB7      30.00F
LIMON          CLOUDY    51  44  77 VRB6      30.02S
MONUMENT HILL  NOT AVBL
TRINIDAD       SUNNY     65  42  43 VRB5      30.01F
$$

COZ042>045-048>051-090-091-221900-
...NORTHEAST COLORADO...

CITY           SKY/WX    TMP DP  RH WIND       PRES   REMARKS
GREELEY ARPT   CLOUDY    48  46  93 E13       30.03S
AKRON          LGT RAIN  47  46  97 SE14      30.03S
BURLINGTON     CLOUDY    50  47  89 S24G32    30.03S
WRAY           LGT RAIN N/A N/A N/A E16       30.06F
STERLING       DRIZZLE   50  46  87 SE13G20   30.04S
HOLYOKE        NOT AVBL
FORT MORGAN    CLOUDY    49  46  89 E14       30.03F
$$

COZ086-089-092>099-221900-
...SOUTHEAST COLORADO...

CITY           SKY/WX    TMP DP  RH WIND       PRES   REMARKS
PUEBLO         SUNNY     60  48  64 SE6       29.97F
LA JUNTA       SUNNY     63  49  60 NE3       29.98S
LAMAR          MOSUNNY   69  52  54 S18G25    29.95
SPRINGFIELD      N/A     62  50  64 S22G35    30.03S
$$



USA.gov is the U.S. government's official web portal to all federal, state and local government web resources and services.